Cancun, Mexico

1:43 PM on July 23, 2017 (GMT +0000)
Cancun International

Weather History for MMUN - January, 2013

Change the Weather History Date:

Sunday, January 27, 2013

  Actual Average Record
Temperature  
Mean Temperature 76 °F -  
Max Temperature 80 °F 82 °F 87 °F (2002)
Min Temperature 71 °F 65 °F 50 °F (2000)
Cooling Degree Days 10    
Growing Degree Days 26 (Base 50)    
Moisture  
Dew Point 70 °F    
Average Humidity 83    
Maximum Humidity 94    
Minimum Humidity 70    
Precipitation  
Precipitation 0.00 in - - ()
Sea Level Pressure  
Sea Level Pressure 30.11 in    
Wind  
Wind Speed 5 mph ()    
Max Wind Speed 12 mph    
Max Gust Speed -    
Visibility 6.7 miles    
Events      
Averages and records for this station are not official NWS values.
T = Trace of Precipitation, MM = Missing Value Source: Averaged Metar Reports

Daily Weather History Graph

Daily Weather History Graph

Search for Another Location

Airport or City:

Trip Planner

Search our weather history database for the weather conditions in past years. The results will help you decide how hot, cold, wet, or windy it might be!

Date:

Astronomy

Jan. 27, 2013 Rise Set
Actual Time 6:25 AM CST 5:35 PM CST
Civil Twilight 6:02 AM CST 5:58 PM CST
Nautical Twilight 5:35 AM CST 6:25 PM CST
Astronomical Twilight 5:09 AM CST 6:51 PM CST
Moon 6:15 PM CST (1/27) 6:28 AM CST (1/27)
Length of Visible Light 11h 55m
Length of Day
11h 09m
Full, 100% of the Moon is Illuminated
Jan 27
Full
Feb 3
Last Quarter
Feb 10
New
Feb 17
First Quarter
Feb 25
Full

Hourly Weather History & Observations

Time (CST) Temp. Heat Index Dew Point Humidity Pressure Visibility Wind Dir Wind Speed Gust Speed Precip Events Conditions
12:43 AM 71.6 °F - 68.0 °F 88% 30.13 in 7.0 mi NE 2.3 mph - N/A   Scattered Clouds
1:40 AM 71.6 °F - 68.0 °F 88% 30.11 in 7.0 mi NE 3.5 mph - N/A   Scattered Clouds
2:40 AM 71.6 °F - 69.8 °F 94% 30.10 in 7.0 mi ENE 3.5 mph - N/A   Mostly Cloudy
3:45 AM 71.6 °F - 69.8 °F 94% 30.09 in 7.0 mi NE 4.6 mph - N/A   Scattered Clouds
4:40 AM 71.6 °F - 68.0 °F 88% 30.09 in 7.0 mi NE 4.6 mph - N/A   Scattered Clouds
5:46 AM 73.4 °F - 69.8 °F 88% 30.10 in 7.0 mi NE 3.5 mph - N/A   Scattered Clouds
6:44 AM 73.4 °F - 69.8 °F 88% 30.11 in 7.0 mi NE 4.6 mph - N/A   Scattered Clouds
7:42 AM 75.2 °F - 69.8 °F 83% 30.13 in 7.0 mi ENE 6.9 mph - N/A   Scattered Clouds
8:45 AM 78.8 °F - 69.8 °F 74% 30.14 in 7.0 mi ENE 6.9 mph - N/A   Scattered Clouds
9:42 AM 78.8 °F - 69.8 °F 74% 30.15 in 7.0 mi ENE 9.2 mph - N/A   Mostly Cloudy
10:47 AM 80.6 °F 83.9 °F 69.8 °F 70% 30.14 in 7.0 mi ENE 11.5 mph - N/A   Scattered Clouds
11:54 AM 80.6 °F 83.9 °F 69.8 °F 70% 30.13 in 7.0 mi East 9.2 mph - N/A   Mostly Cloudy
12:42 PM 80.6 °F 83.9 °F 69.8 °F 70% 30.11 in 7.0 mi East 8.1 mph - N/A   Mostly Cloudy
1:42 PM 80.6 °F 83.9 °F 69.8 °F 70% 30.09 in 7.0 mi ENE 10.4 mph - N/A   Mostly Cloudy
2:48 PM 78.8 °F - 69.8 °F 74% 30.08 in 7.0 mi NE 5.8 mph - N/A   Mostly Cloudy
3:44 PM 77.0 °F - 71.6 °F 83% 30.09 in 7.0 mi ENE 8.1 mph - N/A   Mostly Cloudy
4:46 PM 77.0 °F - 71.6 °F 83% 30.09 in 7.0 mi NE 4.6 mph - N/A   Mostly Cloudy
5:44 PM 75.2 °F - 71.6 °F 89% 30.08 in 6.0 mi NE 11.5 mph - N/A   Mostly Cloudy
6:45 PM 75.2 °F - 71.6 °F 89% 30.11 in 6.0 mi NE 3.5 mph - N/A   Scattered Clouds
7:43 PM 75.2 °F - 71.6 °F 89% 30.11 in 6.0 mi NE 3.5 mph - N/A   Scattered Clouds
8:46 PM 75.2 °F - 71.6 °F 89% 30.12 in 6.0 mi ENE 3.5 mph - N/A   Scattered Clouds
9:48 PM 75.2 °F - 71.6 °F 89% 30.12 in 6.0 mi East 5.8 mph - N/A   Scattered Clouds
10:47 PM 75.2 °F - 71.6 °F 89% 30.12 in 6.0 mi ENE 5.8 mph - N/A   Scattered Clouds
11:46 PM 75.2 °F - 71.6 °F 89% 30.08 in 6.0 mi East 5.8 mph - N/A   Scattered Clouds